FALCON 9 R/B (43701 NORAD) Tracking and Keplerian Element Data

This shows tracking and keplerian element data for the satellite.

Feedback or suggestion? Click here.




ElementValue
Catalog43701
NameFALCON 9 R/B
Epoch Orbit61
Epoch Day348.14312483
Epoch Year2018
RAAN189.5871
Inclination24.9864
Eccentricity0.7391335
Argument of Perigee195.4562
Mean Anonmoly114.938
Mean Motion2.17410291
Decay Rate0.00011418
L11 43701U 18090B 18348.14312483 .00011418 95093-6 79253-3 0 9999
L22 43701 24.9864 189.5871 7391335 195.4562 114.9380 2.17410291 612



Live tracking and technical data element details for FALCON 9 R/B (NORAD 43701). FALCON 9 R/B can be tracked NOW for your location showing map with azimuth and elevation plus other details from your city location.







IsCatalogInMostPopularTable: catalog: 43701, numindb: 429
Update: records affected: 1



GetName: 43701 FALCON 9 R/B

Hit Count: updated at: Sat, 17 May 2025 08:34:08 GMT